Houston Hull, TX

5:44 PM CST on November 15, 2019 (GMT -0600)
Sugar Land Municipal-Hull

Weather History for KSGR - September, 2019

Change the Weather History Date:

Saturday, September 7, 2019

  Actual Average Record
Temperature  
Mean Temperature 84 °F -  
Max Temperature 98 °F 90 °F 100 °F (1951)
Min Temperature 72 °F 70 °F 57 °F (1974)
Cooling Degree Days 20    
Growing Degree Days 34 (Base 50)    
Moisture  
Dew Point 74 °F    
Average Humidity 74    
Maximum Humidity 100    
Minimum Humidity 41    
Precipitation  
Precipitation 0.00 in - - ()
Sea Level Pressure  
Sea Level Pressure 30.00 in    
Wind  
Wind Speed 5 mph (SSW)    
Max Wind Speed 12 mph    
Max Gust Speed -    
Visibility 10 miles    
Events      
Averages and records for this station are not official NWS values.
T = Trace of Precipitation, MM = Missing Value Source: NWS Daily Summary

Daily Weather History Graph

Daily Weather History Graph

Search for Another Location

Airport or City:

Astronomy

Sep. 07, 2019 Rise Set
Actual Time 7:03 AM CDT 7:37 PM CDT
Civil Twilight 6:38 AM CDT 8:01 PM CDT
Nautical Twilight 6:10 AM CDT 8:30 PM CDT
Astronomical Twilight 5:41 AM CDT 8:58 PM CDT
Moon 3:33 PM CDT (9/7) 1:15 AM CDT (9/7)
Length of Visible Light 13h 22m
Length of Day
12h 34m
Waxing Gibbous, 66% of the Moon is Illuminated
Sep 7
Waxing Gibbous
Sep 13
Full
Sep 21
Last Quarter
Sep 28
New
Oct 5
First Quarter

Hourly Weather History & Observations

Time (CDT) Temp. Heat Index Dew Point Humidity Pressure Visibility Wind Dir Wind Speed Gust Speed Precip Events Conditions
12:53 AM 78.1 °F - 73.9 °F 87% 30.03 in 10.0 mi South 5.8 mph - N/A   Clear
1:53 AM 78.1 °F - 73.9 °F 87% 30.02 in 10.0 mi South 5.8 mph - N/A   Clear
2:53 AM 73.9 °F - 73.0 °F 97% 30.02 in 10.0 mi Calm Calm - N/A   Clear
3:53 AM 73.9 °F - 73.0 °F 97% 30.01 in 10.0 mi Calm Calm - N/A   Clear
4:53 AM 72.0 °F - 72.0 °F 100% 30.01 in 6.0 mi Calm Calm - N/A   Clear
5:53 AM 72.0 °F - 72.0 °F 100% 30.02 in 10.0 mi Calm Calm - N/A   Clear
6:53 AM 72.0 °F - 72.0 °F 100% 30.04 in 10.0 mi Calm Calm - N/A   Clear
7:53 AM 73.9 °F - 73.9 °F 100% 30.05 in 10.0 mi Calm Calm - N/A   Partly Cloudy
8:53 AM 80.1 °F 85.8 °F 77.0 °F 90% 30.06 in 10.0 mi West 3.5 mph - N/A   Clear
9:53 AM 86.0 °F 98.3 °F 78.1 °F 77% 30.06 in 10.0 mi Variable 5.8 mph - N/A   Scattered Clouds
10:18 AM 86.0 °F 96.9 °F 77.0 °F 74% 30.06 in 10.0 mi West 11.5 mph - N/A   Mostly Cloudy
10:28 AM 86.0 °F 95.1 °F 75.0 °F 70% 30.06 in 10.0 mi West 8.1 mph - N/A   Scattered Clouds
10:53 AM 87.1 °F 96.3 °F 75.0 °F 67% 30.06 in 10.0 mi Variable 4.6 mph - N/A   Scattered Clouds
11:53 AM 91.0 °F 98.2 °F 72.0 °F 53% 30.04 in 10.0 mi SW 6.9 mph - N/A   Clear
12:53 PM 93.0 °F 101.9 °F 73.0 °F 52% 30.02 in 10.0 mi Variable 4.6 mph - N/A   Clear
1:53 PM 95.0 °F 103.2 °F 72.0 °F 47% 29.99 in 10.0 mi Variable 4.6 mph - N/A   Clear
2:53 PM 97.0 °F 104.8 °F 71.1 °F 43% 29.96 in 10.0 mi SW 6.9 mph - N/A   Clear
3:53 PM 97.0 °F 103.5 °F 70.0 °F 41% 29.95 in 10.0 mi South 8.1 mph - N/A   Clear
4:53 PM 97.0 °F 104.8 °F 71.1 °F 43% 29.94 in 10.0 mi SSE 6.9 mph - N/A   Clear
5:53 PM 95.0 °F 102.5 °F 71.1 °F 46% 29.93 in 10.0 mi SSE 10.4 mph - N/A   Clear
6:53 PM 93.0 °F 100.1 °F 71.1 °F 49% 29.92 in 10.0 mi SSE 10.4 mph - N/A   Clear
7:53 PM 88.0 °F 100.2 °F 77.0 °F 70% 29.94 in 10.0 mi South 11.5 mph - N/A   Clear
8:53 PM 84.0 °F 92.6 °F 75.9 °F 76% 29.96 in 10.0 mi South 11.5 mph - N/A   Clear
9:53 PM 82.0 °F 88.6 °F 75.0 °F 79% 29.98 in 10.0 mi South 8.1 mph - N/A   Clear
10:53 PM 79.0 °F - 75.0 °F 88% 29.99 in 10.0 mi SSE 5.8 mph - N/A   Clear
11:53 PM 79.0 °F - 75.0 °F 88% 29.99 in 10.0 mi South 4.6 mph - N/A   Clear